Weather History for HELX - August, 2014

Change the Weather History Date:

Saturday, August 9, 2014

  Actual Average Record
Temperature  
Mean Temperature 91 °F -  
Max Temperature 102 °F 102 °F - ()
Min Temperature 80 °F 75 °F - ()
Cooling Degree Days 26    
Growing Degree Days 41 (Base 50)    
Moisture  
Dew Point 59 °F    
Average Humidity 31    
Maximum Humidity 48    
Minimum Humidity 18    
Precipitation  
Precipitation 0.00 in 0.00 in - ()
Sea Level Pressure  
Sea Level Pressure 29.76 in    
Wind  
Wind Speed 4 mph ()    
Max Wind Speed 9 mph    
Max Gust Speed -    
Visibility 6.0 miles    
Events      
T = Trace of Precipitation, MM = Missing Value Source: Averaged Metar Reports

Daily Weather History Graph

Daily Weather History Graph

Search for Another Location

Airport or City:

Trip Planner

Search our weather history database for the weather conditions in past years. The results will help you decide how hot, cold, wet, or windy it might be!

Date:

Astronomy

Aug. 09, 2014 Rise Set
Actual Time 6:19 AM EEST 7:29 PM EEST
Civil Twilight 5:55 AM EEST 7:53 PM EEST
Nautical Twilight 5:26 AM EEST 8:22 PM EEST
Astronomical Twilight 4:56 AM EEST 8:52 PM EEST
Moon 6:15 PM EEST (8/9) 4:38 AM EEST (8/9)
Length of Visible Light 13h 58m
Length of Day
13h 10m
Waxing Gibbous, 97% of the Moon is Illuminated
Aug 9
Waxing Gibbous
Aug 10
Full
Aug 17
Last Quarter
Aug 25
New
Sep 2
First Quarter

Hourly Weather History & Observations

Time (EEST) Temp. Heat Index Dew Point Humidity Pressure Visibility Wind Dir Wind Speed Gust Speed Precip Events Conditions
12:00 AM 94 °F - 59 °F 22% 29.76 in 6 mi SSE 4.6 mph - -  
12:00 AM 93.2 °F 92.6 °F 59.0 °F 32% 29.77 in - SSE 4.6 mph - N/A   Clear
1:00 AM 93.2 °F 92.6 °F 59.0 °F 32% 29.77 in - ESE 2.3 mph - N/A   Clear
2:00 AM 89.6 °F 88.9 °F 59.0 °F 36% 29.77 in - Calm Calm - N/A   Clear
3:00 AM 90 °F - 58 °F 24% 29.77 in 6 mi Calm Calm - -  
3:00 AM 89.6 °F 88.1 °F 57.2 °F 33% 29.77 in - Calm Calm - N/A   Clear
4:00 AM 86.0 °F 85.4 °F 59.0 °F 40% 29.77 in - SSW 2.3 mph - N/A   Clear
5:00 AM 84.2 °F 83.5 °F 57.2 °F 40% 29.77 in - Calm Calm - N/A   Clear
6:00 AM 81 °F - 59 °F 37% 29.77 in 6 mi SW 2.3 mph - -  
6:00 AM 80.6 °F 81.1 °F 59.0 °F 48% 29.77 in - SW 2.3 mph - N/A   Clear
7:00 AM 82.4 °F 82.0 °F 57.2 °F 42% 29.77 in - Calm Calm - N/A   Clear
8:00 AM 84.2 °F 83.8 °F 59.0 °F 42% 29.80 in - Calm Calm - N/A   Clear
9:00 AM 90 °F - 61 °F 28% 29.81 in 6 mi NW 5.8 mph - -  
9:00 AM 93.2 °F 94.1 °F 62.6 °F 36% 29.83 in - NNW 3.5 mph - N/A   Clear
10:00 AM 93.2 °F 94.1 °F 62.6 °F 36% 29.83 in - NNW 3.5 mph - N/A   Clear
11:00 AM 95.0 °F 95.2 °F 60.8 °F 32% 29.83 in - NW 8.1 mph - N/A   Clear
12:00 PM 96.8 °F 97.1 °F 60.8 °F 30% 29.80 in - NNW 6.9 mph - N/A   Clear
1:00 PM 98.6 °F 98.5 °F 59.0 °F 27% 29.77 in - NNW 5.8 mph - N/A   Clear
2:00 PM 100.4 °F 101.3 °F 60.8 °F 27% 29.74 in - NW 6.9 mph - N/A   Clear
3:00 PM 101 °F - 60 °F 18% 29.73 in 6 mi NW 9.2 mph - -  
3:00 PM 102.2 °F 103.6 °F 60.8 °F 26% 29.74 in - NW 9.2 mph - N/A   Clear
4:00 PM 102.2 °F 103.6 °F 60.8 °F 26% 29.71 in - NW 8.1 mph - N/A   Clear
5:00 PM 100.4 °F 102.4 °F 62.6 °F 29% 29.71 in - NW 9.2 mph - N/A   Clear
6:00 PM 99 °F - 63 °F 21% 29.68 in 6 mi WNW 6.9 mph - -  
6:00 PM 98.6 °F 100.0 °F 62.6 °F 30% 29.68 in - WNW 6.9 mph - N/A   Clear
8:00 PM 93.2 °F 91.3 °F 55.4 °F 28% 29.71 in - West 8.1 mph - N/A   Clear
9:00 PM 91 °F - 56 °F 21% 29.70 in 6 mi WNW 9.2 mph - -  
9:00 PM 91.4 °F 89.4 °F 55.4 °F 29% 29.71 in - WNW 9.2 mph - N/A   Clear
10:00 PM 89.6 °F 88.1 °F 57.2 °F 33% 29.71 in - WNW 8.1 mph - N/A   Clear
11:00 PM 89.6 °F 87.7 °F 55.4 °F 31% 29.74 in - West 3.5 mph - N/A   Clear